Regional Weather Roundup
Issued by NWS

Home | Current Version | Previous Version | Text Only | Print | Product List | Glossary On
Versions: 1 2 3 4 5 6 7 8 9 10 11 12 13 14 15 16 17 18 19 20 21 22 23 24 25 26 27 28 29 30 31 32 33 34 35 36 37 38 39 40 41 42 43 44 45 46 47 48 49 50
000
ASUS43 KMPX 080310
RWRMN
WEATHER ROUNDUP FOR MINNESOTA
NATIONAL WEATHER SERVICE TWIN CITIES/CHANHASSEN MN
1000 PM CDT TUE JUL 07 2015


NOTE: "FAIR" INDICATES FEW OR NO CLOUDS BELOW 12,000 FEET WITH NO
SIGNIFICANT WEATHER AND/OR OBSTRUCTIONS TO VISIBILITY. N/A MEANS
CURRENT SKY AND/OR WEATHER CONDITIONS ARE NOT AVAILABLE.

MNZ060>063-068>070-080400-
   Twin Cities Metro

CITY           SKY/WX    TMP DP  RH WIND       PRES   REMARKS
TWIN CITIES    PTCLDY    66  47  50 E8        30.11R
ST PAUL        CLEAR     61  51  70 CALM      30.12R
CRYSTAL        CLEAR     61  50  67 CALM      30.10R
BLAINE         CLEAR     61  54  77 CALM      30.11R
LAKEVILLE      PTCLDY    57  54  88 CALM      30.12R
EDEN PRAIRIE   PTCLDY    63  48  58 E3        30.10R
SOUTH ST PAUL  PTCLDY    63  50  62 CALM      30.11R
LAKE ELMO      FAIR      59  54  82 CALM      30.12R
$$
MNZ001>005-007-008-013>017-022>024-027-028-080400-
   Northwest Minnesota

CITY           SKY/WX    TMP DP  RH WIND       PRES   REMARKS
BEMIDJI        CLEAR     61  49  64 CALM      30.07S
HALLOCK        CLEAR     57  54  88 SE8       29.99S
ROSEAU         CLEAR     57  52  82 S5        30.03R
WARROAD        CLEAR     61  52  72 CALM      30.04R
THIEF RVR FALL CLEAR     57  48  72 S6        30.05R
CROOKSTON      CLEAR     63  52  67 S9        30.04R
FOSSTON        CLEAR     52  46  82 CALM      30.07S
DETROIT LAKES  CLEAR     63  48  59 CALM      30.10R
MOORHEAD       CLEAR     61  50  67 S7        30.07R
PARK RAPIDS    CLEAR     61  47  59 S3        30.09R
MAHNOMEN       FAIR      58  48  71 S7        30.07S
$$
MNZ006-009>011-018-025>026-080400-
   North Central Minnesota

CITY           SKY/WX    TMP DP  RH WIND       PRES   REMARKS
BAUDETTE       CLEAR     59  47  64 SW6       30.04S
FLAG ISLAND    CLEAR     64  52  63 SW7       30.01R
INTL FALLS     CLEAR     60  48  64 W5        30.05R
WASKISH        CLEAR     55  52  88 CALM      30.06S
BIG FORK       CLEAR     54  50  87 CALM      30.09R
LONGVILLE      CLEAR     54  50  87 CALM      30.10R
GRAND RAPIDS   CLEAR     54  46  76 S3        30.10S
CRANE LAKE     CLEAR     52  50  93 SE1       30.08S
COOK           CLEAR     55  50  82 CALM      30.09R
WALKER         FAIR      56  50  82 CALM      30.09R
$$
MNZ012-019>021-037-080400-
   Northeast Minnesota

CITY           SKY/WX    TMP DP  RH WIND       PRES   REMARKS
DULUTH         CLEAR     61  48  62 SW5       30.10R
ELY            CLEAR     54  46  76 CALM      30.09R
HIBBING        CLEAR     51  47  86 CALM      30.10R
EVELETH        CLEAR     54  46  76 CALM      30.11R
DULUTH HARBOR  CLEAR     66  54  63 S8        30.10R
TWO HARBORS    CLEAR     57  52  82 CALM      30.08R
SILVER BAY     CLEAR     54  50  87 CALM      30.08R
GRAND MARAIS     N/A     53  48  83 CALM      30.08S
G MARAIS ARPRT CLEAR     52  43  71 W3        30.12S
$$
MNZ029>031-032-039>041-046>048-054>057-064-080400-
   West Central Minnesota

CITY           SKY/WX    TMP DP  RH WIND       PRES   REMARKS
FERGUS FALLS   CLEAR     61  50  67 S5        30.09R
WHEATON        CLEAR     55  50  82 SE5       30.10R
MORRIS         PTCLDY    61  54  77 S5        30.09R
ALEXANDRIA     CLEAR     62  49  62 SE7       30.12R
ELBOW LAKE     FAIR      58  51  79 S5        30.10R
WADENA         CLEAR     57  50  77 CALM      30.10R
GLENWOOD       CLEAR     59  50  72 SE5       30.12R
APPLETON       PTCLDY    61  52  72 S3        30.10R
BENSON         PTCLDY    59  52  77 CALM      30.10S
ORTONVILLE     PTCLDY    59  50  72 SE5       30.09R
MADISON        MOCLDY    59  52  77 SE6       30.10S
WILLMAR        FAIR      63  52  67 CALM      30.13R
$$
MNZ033>034-036-042>043-049>051-058-059-080400-
   Central Minnesota

CITY           SKY/WX    TMP DP  RH WIND       PRES   REMARKS
ST CLOUD       CLEAR     56  53  90 E3        30.11R
SAUK CENTRE    FAIR      57  52  84 SE5       30.11R
PAYNESVILLE    PTCLDY    55  51  87 CALM      30.11S
AITKIN         CLEAR     54  48  82 CALM      30.10R
PINE RIVER     CLEAR     54  50  87 CALM      30.13R
BRAINERD       CLEAR     57  52  83 CALM      30.11R
STAPLES        CLEAR     57  46  67 CALM      30.10R
LONG PRAIRIE   FAIR      55  52  88 CALM      30.11R
LITTLE FALLS   CLEAR     54  48  82 CALM      30.11R
LITCHFIELD     PTCLDY    61  54  77 CALM      30.12R
BUFFALO        CLEAR     60  53  76 CALM      30.12R
MAPLE LAKE     CLEAR     58  53  82 CALM      30.12R
$$
MNZ037-044-045-052-053-080400-
   East Central Minnesota

CITY           SKY/WX    TMP DP  RH WIND       PRES   REMARKS
PRINCETON      CLEAR     57  52  82 CALM      30.12R
MORA           CLEAR     55  50  82 CALM      30.14R
CAMBRIDGE      CLEAR     61  50  67 CALM      30.10R
RUSH CITY      PTCLDY    55  52  91 CALM      30.11S
MOOSE LAKE     PTCLDY    54  52  94 CALM      30.10R
HINCKLEY       FAIR      55  54  94 CALM      30.12R
CLOQUET        CLEAR     57  48  72 CALM      30.11R
MCGREGOR       CLEAR     59  50  72 S3        30.12R
$$
MNZ071>073-080-081-089-090-097-098-080400-
   Southwest Minnesota

CITY           SKY/WX    TMP DP  RH WIND       PRES   REMARKS
MONTEVIDEO     MOCLDY    61  50  67 S3        30.12S
GRANITE FALLS  PTCLDY    63  51  67 CALM      30.13R
CANBY          MOCLDY    58  52  79 SE5       30.12R
MARSHALL       MOCLDY    61  48  63 SE6       30.10S
REDWOOD FALLS  PTCLDY    60  52  74 SE6       30.11R
OLIVIA         PTCLDY    59  48  67 CALM      30.11R
PIPESTONE      PTCLDY    59  52  77 CALM      30.12R
WINDOM         PTCLDY    57  52  82 CALM      30.13R
WORTHINGTON    PTCLDY    55  48  76 E5        30.13R
JACKSON        CLEAR     59  52  77 E5        30.14R
TRACY          PTCLDY    60  53  77 S3        30.12R
SLAYTON        PTCLDY    58  53  83 CALM      30.13S
$$
MNZ065>067-074>077-082>085-091>093-080400-
   South Central Minnesota

CITY           SKY/WX    TMP DP  RH WIND       PRES   REMARKS
MANKATO        PTCLDY    61  50  67 S6        30.12R
NEW ULM        PTCLDY    63  50  63 CALM      30.12R
ST JAMES         N/A     59  55  88 CALM      30.13S
FAIRMONT       PTCLDY    57  48  72 E3        30.12R
GLENCOE        PTCLDY    60  56  86 CALM      30.12R
FARIBAULT      PTCLDY    57  54  88 CALM      30.12R
OWATONNA       CLEAR     57  52  82 CALM      30.13R
WASECA         PTCLDY    55  52  88 CALM      30.13S
ALBERT LEA     PTCLDY    57  54  88 CALM      30.13R
$$
MNZ078>079-086>088-094>096-080400-
   Southeast Minnesota

CITY           SKY/WX    TMP DP  RH WIND       PRES   REMARKS
ROCHESTER      CLEAR     59  51  75 SE3       30.14R
RED WING       CLEAR     57  54  88 CALM      30.11R
STANTON        CLEAR     59  55  88 CALM      30.11R
DODGE CENTER   PTCLDY    57  54  88 CALM      30.13R
WINONA         CLEAR     59  54  82 CALM      30.12R
AUSTIN         CLEAR     57  54  88 CALM      30.12S
PRESTON        CLEAR     58  50  73 CALM      30.14R
$$
ABBREVIATIONS USED IN REMARKS
   TC - TEMPERATURES IN CELSIUS
  WCI - WIND CHILL INDEX
   HX - HEAT INDEX
  VSB - VISIBILITY
$$


USA.gov is the U.S. government's official web portal to all federal, state and local government web resources and services.